Boulder City, NV

12:15 PM PST on December 15, 2017 (GMT -0800)
Boulder City

Weather History for KBVU - January, 2013

Change the Weather History Date:

Thursday, January 3, 2013

  Actual Average (KLAS) Record (KLAS)
Temperature  
Mean Temperature 41 °F -  
Max Temperature 50 °F 51 °F 69 °F (1997)
Min Temperature 32 °F 31 °F 12 °F (1974)
Degree Days  
Heating Degree Days 24    
Moisture  
Dew Point 6 °F    
Average Humidity 24    
Maximum Humidity 38    
Minimum Humidity 13    
Precipitation  
Precipitation 0.00 in - - ()
Sea Level Pressure  
Sea Level Pressure 30.28 in    
Wind  
Wind Speed 8 mph (North)    
Max Wind Speed 20 mph    
Max Gust Speed 16 mph    
Visibility 10 miles    
Events      
Averages and records for this station are not official NWS values.
T = Trace of Precipitation, MM = Missing Value Source: NWS Daily Summary

Daily Weather History Graph

Daily Weather History Graph

Search for Another Location

Airport or City:

Trip Planner

Search our weather history database for the weather conditions in past years. The results will help you decide how hot, cold, wet, or windy it might be!

Date:

Astronomy

Jan. 03, 2013 Rise Set
Actual Time 6:50 AM PST 4:38 PM PST
Civil Twilight 6:21 AM PST 5:06 PM PST
Nautical Twilight 5:49 AM PST 5:38 PM PST
Astronomical Twilight 5:18 AM PST 6:09 PM PST
Moon 11:04 PM PST (1/3) 10:16 AM PST (1/3)
Length of Visible Light 10h 44m
Length of Day
9h 47m
Waning Gibbous, 64% of the Moon is Illuminated
Jan 3
Waning Gibbous
Jan 4
Last Quarter
Jan 11
New
Jan 18
First Quarter
Jan 26
Full

Hourly Weather History & Observations

Time (PST) Temp. Windchill Dew Point Humidity Pressure Visibility Wind Dir Wind Speed Gust Speed Precip Events Conditions
12:15 AM 39.2 °F 33.6 °F 10.4 °F 31% 30.22 in 10.0 mi NNE 8.1 mph - N/A   Unknown
12:35 AM 41.0 °F - 10.4 °F 29% 30.22 in 10.0 mi Calm Calm - N/A   Unknown
12:55 AM 37.4 °F 32.8 °F 12.2 °F 36% 30.22 in 10.0 mi NNW 5.8 mph - N/A   Unknown
1:15 AM 39.2 °F 35.9 °F 14.0 °F 36% 30.23 in 10.0 mi NE 4.6 mph - N/A   Unknown
1:35 AM 37.4 °F 33.8 °F 10.4 °F 33% 30.24 in 10.0 mi NW 4.6 mph - N/A   Unknown
1:55 AM 39.2 °F 30.8 °F 12.2 °F 33% 30.24 in 10.0 mi NNE 15.0 mph - N/A   Unknown
2:15 AM 39.2 °F 31.2 °F 10.4 °F 31% 30.24 in 10.0 mi North 13.8 mph - N/A   Unknown
2:35 AM 39.2 °F 30.8 °F 10.4 °F 31% 30.24 in 10.0 mi NNE 15.0 mph - N/A   Unknown
2:55 AM 39.2 °F 31.2 °F 8.6 °F 28% 30.24 in 10.0 mi North 13.8 mph - N/A   Unknown
3:15 AM 37.4 °F 30.3 °F 8.6 °F 30% 30.26 in 10.0 mi North 10.4 mph - N/A   Unknown
3:35 AM 37.4 °F 27.5 °F 12.2 °F 36% 30.25 in 10.0 mi NNE 18.4 mph - N/A   Unknown
3:55 AM 37.4 °F 27.2 °F 12.2 °F 36% 30.25 in 10.0 mi NNE 19.6 mph - N/A   Unknown
4:15 AM 37.4 °F 28.2 °F 14.0 °F 38% 30.25 in 10.0 mi NNE 16.1 mph - N/A   Unknown
4:35 AM 37.4 °F 30.8 °F 10.4 °F 33% 30.26 in 10.0 mi NNE 9.2 mph - N/A   Unknown
4:55 AM 35.6 °F 28.6 °F 10.4 °F 35% 30.27 in 10.0 mi NNE 9.2 mph - N/A   Unknown
5:15 AM 37.4 °F 30.3 °F 6.8 °F 28% 30.27 in 10.0 mi North 10.4 mph - N/A   Unknown
5:35 AM 35.6 °F 28.0 °F 6.8 °F 30% 30.27 in 10.0 mi NNW 10.4 mph - N/A   Unknown
5:55 AM 35.6 °F 29.9 °F 8.6 °F 33% 30.28 in 10.0 mi North 6.9 mph - N/A   Unknown
6:15 AM 35.6 °F - 8.6 °F 33% 30.29 in 10.0 mi Calm Calm - N/A   Unknown
6:35 AM 32.0 °F 25.6 °F 8.6 °F 38% 30.29 in 10.0 mi West 6.9 mph - N/A   Unknown
6:55 AM 35.6 °F 28.6 °F 6.8 °F 30% 30.30 in 10.0 mi NW 9.2 mph - N/A   Unknown
7:15 AM 35.6 °F 27.5 °F 6.8 °F 30% 30.31 in 10.0 mi WNW 11.5 mph - N/A   Unknown
7:35 AM 37.4 °F 32.8 °F 6.8 °F 28% 30.32 in 10.0 mi North 5.8 mph - N/A   Unknown
7:55 AM 37.4 °F 32.8 °F 6.8 °F 28% 30.32 in 10.0 mi North 5.8 mph - N/A   Unknown
8:15 AM 39.2 °F - 6.8 °F 26% 30.33 in 10.0 mi Calm Calm - N/A   Unknown
8:35 AM 39.2 °F 34.2 °F 6.8 °F 26% 30.33 in 10.0 mi North 6.9 mph - N/A   Unknown
8:55 AM 41.0 °F 34.7 °F 10.4 °F 29% 30.34 in 10.0 mi NNE 10.4 mph - N/A   Unknown
9:15 AM 42.8 °F 40.1 °F 8.6 °F 25% 30.34 in 10.0 mi North 4.6 mph - N/A   Unknown
9:35 AM 44.6 °F 43.1 °F 6.8 °F 21% 30.35 in 10.0 mi NE 3.5 mph - N/A   Unknown
9:55 AM 44.6 °F 40.7 °F 6.8 °F 21% 30.35 in 10.0 mi NNE 6.9 mph - N/A   Unknown
10:15 AM 44.6 °F 40.2 °F 6.8 °F 21% 30.34 in 10.0 mi NNE 8.1 mph - N/A   Unknown
10:35 AM 46.4 °F 42.9 °F 5.0 °F 18% 30.34 in 10.0 mi NNE 6.9 mph 16.1 mph N/A   Unknown
10:55 AM 46.4 °F 42.4 °F 5.0 °F 18% 30.32 in 10.0 mi North 8.1 mph - N/A   Unknown
11:15 AM 46.4 °F 42.9 °F 3.2 °F 17% 30.31 in 10.0 mi NNE 6.9 mph - N/A   Unknown
11:35 AM 48.2 °F - 1.4 °F 15% 30.30 in 10.0 mi North 3.5 mph - N/A   Unknown
11:55 AM 48.2 °F - -0.4 °F 13% 30.29 in 10.0 mi NNE 8.1 mph 16.1 mph N/A   Unknown
12:15 PM 48.2 °F - -0.4 °F 13% 30.28 in 10.0 mi NNE 9.2 mph - N/A   Unknown
12:35 PM 50.0 °F - -0.4 °F 13% 30.27 in 10.0 mi NNE 11.5 mph 16.1 mph N/A   Unknown
12:55 PM 50.0 °F - -0.4 °F 13% 30.27 in 10.0 mi NNE 10.4 mph - N/A   Unknown
1:15 PM 50.0 °F - 1.4 °F 14% 30.26 in 10.0 mi NE 8.1 mph - N/A   Unknown
1:35 PM 50.0 °F - -0.4 °F 13% 30.26 in 10.0 mi NE 10.4 mph - N/A   Unknown
1:55 PM 50.0 °F - -0.4 °F 13% 30.26 in 10.0 mi North 9.2 mph - N/A   Unknown
2:15 PM 50.0 °F - -0.4 °F 13% 30.26 in 10.0 mi NNE 8.1 mph - N/A   Unknown
2:35 PM 50.0 °F - -0.4 °F 13% 30.27 in 10.0 mi NNE 8.1 mph - N/A   Unknown
2:55 PM 50.0 °F - -0.4 °F 13% 30.27 in 10.0 mi NNE 6.9 mph - N/A   Unknown
3:15 PM 50.0 °F - -0.4 °F 13% 30.27 in 10.0 mi Calm Calm - N/A   Unknown
3:35 PM 50.0 °F - -0.4 °F 13% 30.27 in 10.0 mi NNE 6.9 mph - N/A   Unknown
3:55 PM 50.0 °F - -0.4 °F 13% 30.26 in 10.0 mi North 6.9 mph - N/A   Unknown
4:15 PM 48.2 °F - -0.4 °F 13% 30.27 in 10.0 mi NNW 4.6 mph - N/A   Unknown
4:35 PM 48.2 °F - -0.4 °F 13% 30.27 in 10.0 mi NNW 8.1 mph - N/A   Unknown
4:55 PM 46.4 °F 42.4 °F -0.4 °F 14% 30.27 in 10.0 mi NNW 8.1 mph - N/A   Unknown
5:15 PM 44.6 °F 39.7 °F -0.4 °F 15% 30.27 in 10.0 mi NNW 9.2 mph - N/A   Unknown
5:35 PM 46.4 °F 41.5 °F -0.4 °F 14% 30.27 in 10.0 mi North 10.4 mph - N/A   Unknown
5:55 PM 44.6 °F 40.2 °F 3.2 °F 18% 30.27 in 10.0 mi North 8.1 mph - N/A   Unknown
6:15 PM 41.0 °F 38.0 °F 6.8 °F 24% 30.28 in 10.0 mi North 4.6 mph - N/A   Unknown
6:35 PM 42.8 °F 38.6 °F 3.2 °F 19% 30.27 in 10.0 mi North 6.9 mph - N/A   Unknown
6:55 PM 41.0 °F 37.1 °F 5.0 °F 23% 30.27 in 10.0 mi North 5.8 mph - N/A   Unknown
7:15 PM 41.0 °F - 5.0 °F 23% 30.27 in 10.0 mi Calm Calm - N/A   Unknown
7:35 PM 35.6 °F - 8.6 °F 33% 30.27 in 10.0 mi Calm Calm - N/A   Unknown
7:55 PM 35.6 °F - 8.6 °F 33% 30.27 in 10.0 mi Calm Calm - N/A   Unknown
8:15 PM 37.4 °F - 6.8 °F 28% 30.28 in 10.0 mi Calm Calm - N/A   Unknown
8:35 PM 37.4 °F 34.9 °F 6.8 °F 28% 30.28 in 10.0 mi North 3.5 mph - N/A   Unknown
8:55 PM 35.6 °F 29.9 °F 8.6 °F 33% 30.28 in 10.0 mi NNW 6.9 mph - N/A   Unknown
9:15 PM 39.2 °F 33.6 °F 5.0 °F 24% 30.28 in 10.0 mi NNW 8.1 mph - N/A   Unknown
9:35 PM 39.2 °F 33.0 °F 5.0 °F 24% 30.28 in 10.0 mi NNW 9.2 mph - N/A   Unknown
9:55 PM 39.2 °F 32.5 °F 5.0 °F 24% 30.29 in 10.0 mi North 10.4 mph - N/A   Unknown
10:15 PM 39.2 °F 33.6 °F 5.0 °F 24% 30.29 in 10.0 mi NNW 8.1 mph - N/A   Unknown
10:35 PM 37.4 °F 31.4 °F 5.0 °F 26% 30.29 in 10.0 mi NNW 8.1 mph - N/A   Unknown
10:55 PM 39.2 °F 32.5 °F 5.0 °F 24% 30.29 in 10.0 mi North 10.4 mph - N/A   Unknown
11:35 PM 37.4 °F 31.4 °F 5.0 °F 26% 30.29 in 10.0 mi North 8.1 mph - N/A   Unknown
11:55 PM 37.4 °F 30.8 °F 5.0 °F 26% 30.29 in 10.0 mi North 9.2 mph - N/A   Unknown